Time,TemperatureF,DewpointF,PressureIn,WindDirection,WindDirectionDegrees,WindSpeedMPH,WindSpeedGustMPH,Humidity,HourlyPrecipIn,Conditions,Clouds,dailyrainin,SoftwareType,DateUTC
2013-09-07 00:24:00,59.0,58.0,30.22,ENE,64,0.0,0.0,98,0.00,,,0.01,,2013-09-07 04:24:00,
2013-09-07 00:54:00,58.0,57.0,30.22,ENE,64,0.0,0.0,97,0.00,,,0.01,,2013-09-07 04:54:00,
2013-09-07 01:13:00,58.0,57.0,30.22,ENE,64,0.0,0.0,97,0.00,,,0.01,,2013-09-07 05:13:00,
2013-09-07 01:23:00,58.0,57.0,30.22,ENE,64,0.0,0.0,97,0.00,,,0.01,,2013-09-07 05:23:00,
2013-09-07 01:52:00,57.0,56.0,30.21,ENE,64,0.0,0.0,98,0.00,,,0.01,,2013-09-07 05:52:00,
2013-09-07 02:13:00,57.0,56.0,30.22,ENE,64,0.0,0.0,98,0.00,,,0.01,,2013-09-07 06:13:00,
2013-09-07 02:22:00,57.0,56.0,30.22,ENE,64,0.0,0.0,98,0.00,,,0.01,,2013-09-07 06:22:00,
2013-09-07 02:52:00,57.0,56.0,30.21,ENE,64,0.0,0.0,98,0.00,,,0.01,,2013-09-07 06:52:00,
2013-09-07 03:12:00,57.0,56.0,30.21,ENE,64,0.0,0.0,98,0.00,,,0.01,,2013-09-07 07:12:00,
2013-09-07 03:22:00,57.0,57.0,30.20,ENE,64,0.0,0.0,99,0.00,,,0.01,,2013-09-07 07:22:00,
2013-09-07 03:52:00,57.0,57.0,30.19,ENE,64,0.0,0.0,99,0.00,,,0.01,,2013-09-07 07:52:00,
2013-09-07 04:12:00,56.0,56.0,30.19,ENE,64,0.0,0.0,99,0.00,,,0.01,,2013-09-07 08:12:00,
2013-09-07 04:22:00,56.0,56.0,30.19,ENE,64,0.0,0.0,99,0.00,,,0.00,,2013-09-07 08:22:00,
2013-09-07 04:53:00,56.0,55.0,30.19,ENE,64,0.0,0.0,98,0.00,,,0.00,,2013-09-07 08:53:00,
2013-09-07 05:12:00,55.0,54.0,30.19,ENE,64,0.0,0.0,98,0.00,,,0.00,,2013-09-07 09:12:00,
2013-09-07 05:21:00,55.0,55.0,30.19,ENE,64,0.0,0.0,99,0.00,,,0.00,,2013-09-07 09:21:00,
2013-09-07 05:52:00,55.0,55.0,30.19,ENE,64,0.0,0.0,99,0.01,,,0.01,,2013-09-07 09:52:00,
2013-09-07 06:11:00,55.0,55.0,30.19,ENE,64,0.0,0.0,99,0.01,,,0.01,,2013-09-07 10:11:00,
2013-09-07 06:21:00,55.0,55.0,30.20,ENE,64,0.0,0.0,99,0.01,,,0.01,,2013-09-07 10:21:00,
2013-09-07 06:52:00,55.0,55.0,30.20,ENE,64,0.0,0.0,99,0.00,,,0.01,,2013-09-07 10:52:00,
2013-09-07 07:13:00,55.0,55.0,30.21,ENE,64,0.0,0.0,99,0.00,,,0.01,,2013-09-07 11:13:00,
2013-09-07 07:23:00,55.0,55.0,30.21,ENE,64,0.0,0.0,99,0.00,,,0.01,,2013-09-07 11:23:00,
2013-09-07 07:53:00,55.0,55.0,30.21,ENE,64,0.0,0.0,99,0.00,,,0.01,,2013-09-07 11:53:00,
2013-09-07 08:12:00,55.0,55.0,30.21,ENE,64,0.0,0.0,100,0.00,,,0.01,,2013-09-07 12:12:00,
2013-09-07 08:22:00,56.0,56.0,30.21,ENE,64,0.0,0.0,100,0.00,,,0.01,,2013-09-07 12:22:00,
2013-09-07 08:52:00,57.0,57.0,30.21,ENE,64,0.0,0.0,100,0.00,,,0.01,,2013-09-07 12:52:00,
2013-09-07 09:12:00,59.0,59.0,30.21,ENE,64,0.0,0.0,100,0.00,,,0.01,,2013-09-07 13:12:00,
2013-09-07 09:21:00,60.0,60.0,30.21,ENE,64,0.0,0.0,100,0.00,,,0.01,,2013-09-07 13:21:00,
2013-09-07 09:52:00,62.0,62.0,30.21,ENE,64,0.0,1.0,99,0.00,,,0.01,,2013-09-07 13:52:00,
2013-09-07 10:11:00,62.0,61.0,30.21,ENE,64,0.0,2.0,96,0.00,,,0.01,,2013-09-07 14:11:00,
2013-09-07 10:22:00,62.0,61.0,30.21,East,93,1.0,3.0,95,0.00,,,0.01,,2013-09-07 14:22:00,
2013-09-07 10:52:00,64.0,60.0,30.22,NE,42,0.0,4.0,88,0.00,,,0.01,,2013-09-07 14:52:00,
2013-09-07 11:23:00,65.0,61.0,30.22,East,92,0.0,3.0,88,0.00,,,0.01,,2013-09-07 15:23:00,
2013-09-07 11:54:00,66.0,62.0,30.22,WNW,288,0.0,3.0,88,0.00,,,0.01,,2013-09-07 15:54:00,
2013-09-07 12:24:00,66.0,62.0,30.21,NE,55,1.0,3.0,87,0.00,,,0.01,,2013-09-07 16:24:00,
2013-09-07 12:53:00,68.0,63.0,30.21,NW,320,0.0,6.0,84,0.00,,,0.01,,2013-09-07 16:53:00,
2013-09-07 13:24:00,68.0,63.0,30.20,NE,50,0.0,6.0,83,0.00,,,0.01,,2013-09-07 17:24:00,
2013-09-07 13:52:00,70.0,63.0,30.19,NW,314,1.0,4.0,78,0.00,,,0.01,,2013-09-07 17:52:00,
2013-09-07 14:13:00,68.0,62.0,30.19,NW,314,0.0,5.0,82,0.00,,,0.01,,2013-09-07 18:13:00,
2013-09-07 14:22:00,69.0,62.0,30.19,North,359,0.0,3.0,79,0.00,,,0.01,,2013-09-07 18:22:00,
2013-09-07 14:52:00,69.0,64.0,30.18,NNW,346,1.0,5.0,83,0.00,,,0.01,,2013-09-07 18:52:00,
2013-09-07 15:02:00,69.0,64.0,30.18,NNW,346,1.0,5.0,83,0.00,,,0.01,,2013-09-07 19:02:00,
2013-09-07 15:11:00,69.0,64.0,30.18,NNW,346,1.0,5.0,83,0.00,,,0.01,,2013-09-07 19:11:00,
2013-09-07 15:22:00,71.0,65.0,30.17,NNE,25,2.0,4.0,80,0.00,,,0.01,,2013-09-07 19:22:00,
2013-09-07 15:52:00,69.0,62.0,30.16,NNE,23,0.0,4.0,79,0.00,,,0.01,,2013-09-07 19:52:00,
2013-09-07 16:22:00,70.0,62.0,30.16,West,265,1.0,3.0,75,0.00,,,0.01,,2013-09-07 20:22:00,
2013-09-07 16:53:00,68.0,63.0,30.15,ESE,107,0.0,2.0,85,0.00,,,0.01,,2013-09-07 20:53:00,
2013-09-07 17:22:00,68.0,64.0,30.14,North,4,0.0,3.0,87,0.00,,,0.01,,2013-09-07 21:22:00,
2013-09-07 17:54:00,68.0,63.0,30.13,South,173,0.0,2.0,84,0.00,,,0.01,,2013-09-07 21:54:00,
2013-09-07 18:24:00,69.0,63.0,30.14,WNW,294,0.0,4.0,80,0.00,,,0.01,,2013-09-07 22:24:00,
2013-09-07 18:53:00,68.0,64.0,30.13,NNW,342,0.0,2.0,86,0.00,,,0.01,,2013-09-07 22:53:00,
2013-09-07 19:23:00,67.0,64.0,30.12,NNW,343,0.0,2.0,90,0.00,,,0.01,,2013-09-07 23:23:00,
2013-09-07 19:52:00,65.0,63.0,30.12,NNW,342,0.0,0.0,93,0.00,,,0.01,,2013-09-07 23:52:00,
2013-09-07 20:11:00,64.0,62.0,30.13,NNW,342,0.0,0.0,94,0.00,,,0.01,,2013-09-08 00:11:00,
2013-09-07 20:22:00,64.0,62.0,30.13,NNW,342,0.0,0.0,93,0.00,,,0.01,,2013-09-08 00:22:00,
2013-09-07 20:42:00,64.0,62.0,30.13,NNW,342,0.0,0.0,93,0.00,,,0.01,,2013-09-08 00:42:00,
2013-09-07 20:52:00,63.0,61.0,30.14,NNW,342,0.0,0.0,93,0.00,,,0.01,,2013-09-08 00:52:00,
2013-09-07 21:11:00,63.0,61.0,30.14,NNW,342,0.0,0.0,93,0.00,,,0.01,,2013-09-08 01:11:00,
2013-09-07 21:22:00,62.0,60.0,30.14,NNW,342,0.0,0.0,94,0.00,,,0.01,,2013-09-08 01:22:00,
2013-09-07 21:42:00,61.0,60.0,30.14,NNW,342,0.0,1.0,95,0.00,,,0.01,,2013-09-08 01:42:00,
2013-09-07 21:52:00,61.0,60.0,30.14,NNW,342,0.0,0.0,96,0.00,,,0.01,,2013-09-08 01:52:00,
2013-09-07 22:12:00,61.0,60.0,30.14,NNW,342,0.0,0.0,96,0.00,,,0.01,,2013-09-08 02:12:00,
2013-09-07 22:23:00,60.0,59.0,30.14,NNW,342,0.0,0.0,97,0.00,,,0.01,,2013-09-08 02:23:00,
2013-09-07 22:43:00,60.0,59.0,30.15,NNW,342,0.0,0.0,97,0.00,,,0.01,,2013-09-08 02:43:00,
2013-09-07 22:52:00,60.0,59.0,30.15,NNW,342,0.0,0.0,97,0.00,,,0.01,,2013-09-08 02:52:00,
2013-09-07 23:23:00,60.0,59.0,30.15,NNW,342,0.0,0.0,98,0.00,,,0.01,,2013-09-08 03:23:00,
2013-09-07 23:54:00,59.0,58.0,30.15,NNW,342,0.0,0.0,98,0.00,,,0.01,,2013-09-08 03:54:00,